Weather History for Big Rapids, MI

Change the Weather History Date:

Thursday, February 21, 2013

  Actual Average Record
Temperature  
Mean Temperature 22 °F -  
Max Temperature 26 °F 35 °F 50 °F (2000)
Min Temperature 18 °F 17 °F -20 °F (2008)
Degree Days  
Heating Degree Days 43    
Moisture  
Dew Point 13 °F    
Average Humidity 69    
Maximum Humidity 84    
Minimum Humidity 54    
Precipitation  
Precipitation 0.00 in - - ()
Sea Level Pressure  
Sea Level Pressure 30.28 in    
Wind  
Wind Speed 9 mph (NE)    
Max Wind Speed 14 mph    
Max Gust Speed 20 mph    
Visibility 10 miles    
Events Snow    
Averages and records for this station are not official NWS values.
T = Trace of Precipitation, MM = Missing Value Source: NWS Daily Summary

Daily Weather History Graph

Daily Weather History Graph

Search for Another Location

Airport:

Trip Planner

Search our weather history database for the weather conditions in past years. The results will help you decide how hot, cold, wet, or windy it might be!

Date:

Astronomy

Feb. 21, 2013 Rise Set
Actual Time 7:31 AM EST 6:20 PM EST
Civil Twilight 7:02 AM EST 6:49 PM EST
Nautical Twilight 6:28 AM EST 7:23 PM EST
Astronomical Twilight 5:55 AM EST 7:56 PM EST
Moon 2:29 PM EST (2/21) 4:40 AM EST (2/21)
Length of Visible Light 11h 47m
Length of Day
10h 49m
Waxing Gibbous, 83% of the Moon is Illuminated
Feb 21
Waxing Gibbous
Feb 25
Full
Mar 4
Last Quarter
Mar 11
New
Mar 19
First Quarter

Hourly Weather History & Observations

Time (EST) Temp. Windchill Dew Point Humidity Pressure Visibility Wind Dir Wind Speed Gust Speed Precip Events Conditions
12:14 AM 22.3 °F 10.2 °F 14.7 °F 73% 30.22 in 10.0 mi North 12.7 mph - N/A   Overcast
12:34 AM 22.5 °F 11.1 °F 14.7 °F 72% 30.22 in 10.0 mi North 11.5 mph 19.6 mph N/A   Overcast
12:54 AM 22.6 °F 11.3 °F 14.9 °F 72% 30.23 in 10.0 mi NNW 11.5 mph 17.3 mph N/A   Overcast
1:14 AM 22.6 °F 11.3 °F 14.9 °F 72% 30.23 in 10.0 mi NNW 11.5 mph - N/A   Overcast
1:34 AM 22.8 °F 12.2 °F 14.9 °F 72% 30.24 in 10.0 mi North 10.4 mph 18.4 mph N/A   Overcast
1:54 AM 22.8 °F 12.2 °F 14.7 °F 71% 30.24 in 10.0 mi North 10.4 mph - N/A   Overcast
2:14 AM 22.8 °F 12.2 °F 14.5 °F 71% 30.25 in 10.0 mi NNW 10.4 mph 18.4 mph N/A   Overcast
2:34 AM 22.8 °F 10.4 °F 14.7 °F 71% 30.25 in 10.0 mi North 13.8 mph - N/A   Overcast
2:54 AM 22.8 °F 13.6 °F 14.7 °F 71% 30.26 in 10.0 mi NNW 8.1 mph - N/A   Overcast
3:13 AM 22.6 °F 14.3 °F 14.9 °F 72% 30.25 in 10.0 mi NNW 6.9 mph - N/A   Overcast
3:34 AM 22.6 °F 11.9 °F 15.1 °F 73% 30.25 in 10.0 mi NNW 10.4 mph - N/A   Overcast
3:54 AM 22.5 °F 11.1 °F 14.9 °F 73% 30.25 in 10.0 mi NNW 11.5 mph - N/A   Overcast
4:14 AM 22.5 °F 12.4 °F 15.4 °F 74% 30.25 in 10.0 mi NNW 9.2 mph - N/A   Overcast
4:34 AM 22.5 °F 13.2 °F 15.3 °F 74% 30.25 in 10.0 mi NW 8.1 mph - N/A   Overcast
4:54 AM 22.5 °F 10.5 °F 15.6 °F 75% 30.26 in 10.0 mi NW 12.7 mph - N/A   Overcast
5:14 AM 22.5 °F 12.4 °F 15.6 °F 75% 30.27 in 10.0 mi NNW 9.2 mph 18.4 mph N/A   Overcast
5:34 AM 22.5 °F 11.7 °F 15.8 °F 76% 30.27 in 10.0 mi NNW 10.4 mph - N/A   Overcast
5:54 AM 22.5 °F 15.1 °F 15.8 °F 76% 30.28 in 10.0 mi North 5.8 mph - N/A   Overcast
6:14 AM 22.1 °F 11.3 °F 15.4 °F 76% 30.29 in 10.0 mi North 10.4 mph - N/A   Overcast
6:54 AM 21.7 °F 9.6 °F 14.9 °F 75% 30.31 in 10.0 mi North 12.7 mph - N/A   Overcast
7:14 AM 21.7 °F 10.8 °F 14.9 °F 75% 30.32 in 10.0 mi North 10.4 mph - N/A   Overcast
7:34 AM 21.7 °F 13.2 °F 15.1 °F 76% 30.33 in 10.0 mi NNW 6.9 mph - N/A   Overcast
7:54 AM 21.6 °F 11.3 °F 14.9 °F 76% 30.33 in 10.0 mi North 9.2 mph - N/A   Overcast
8:14 AM 21.2 °F 9.5 °F 14.7 °F 76% 30.31 in 10.0 mi North 11.5 mph - N/A   Overcast
8:34 AM 21.0 °F 10.6 °F 14.5 °F 76% 30.30 in 10.0 mi NNE 9.2 mph - N/A   Overcast
8:54 AM 20.7 °F 8.8 °F 14.0 °F 75% 30.28 in 10.0 mi North 11.5 mph - N/A   Overcast
9:14 AM 21.0 °F 9.9 °F 14.5 °F 76% 30.27 in 10.0 mi NNE 10.4 mph - N/A   Overcast
9:34 AM 20.5 °F 10.0 °F 14.0 °F 76% 30.29 in 10.0 mi North 9.2 mph 19.6 mph N/A   Overcast
9:53 AM 20.7 °F 11.0 °F 14.2 °F 76% 30.34 in 10.0 mi NNE 8.1 mph - N/A   Overcast
10:14 AM 21.0 °F 13.4 °F 14.5 °F 76% 30.33 in 10.0 mi NE 5.8 mph - N/A   Overcast
10:34 AM 20.7 °F 11.9 °F 14.0 °F 75% 30.33 in 10.0 mi NE 6.9 mph - N/A   Overcast
10:54 AM 20.7 °F 11.9 °F 14.0 °F 75% 30.33 in 10.0 mi NE 6.9 mph - N/A   Overcast
11:14 AM 20.8 °F 12.1 °F 13.8 °F 74% 30.33 in 10.0 mi NE 6.9 mph - N/A   Overcast
11:34 AM 20.8 °F 13.2 °F 13.8 °F 74% 30.35 in 10.0 mi NNE 5.8 mph - N/A   Overcast
11:53 AM 21.0 °F 16.2 °F 13.5 °F 73% 30.34 in 10.0 mi NE 3.5 mph - N/A   Overcast
12:14 PM 21.2 °F 16.4 °F 13.6 °F 73% 30.34 in 10.0 mi NE 3.5 mph - N/A   Overcast
12:34 PM 21.2 °F 16.4 °F 13.1 °F 71% 30.34 in 10.0 mi NNE 3.5 mph - N/A Snow Light Snow
1:14 PM 22.1 °F - 13.1 °F 68% 30.33 in 10.0 mi Calm Calm - N/A   Overcast
1:34 PM 22.8 °F - 13.3 °F 67% 30.33 in 10.0 mi Calm Calm - N/A   Overcast
1:54 PM 23.5 °F - 13.3 °F 65% 30.32 in 10.0 mi Calm Calm - N/A   Overcast
2:14 PM 23.9 °F - 13.5 °F 64% 30.31 in 10.0 mi Calm Calm - N/A   Overcast
2:34 PM 23.5 °F 17.6 °F 12.9 °F 64% 30.31 in 10.0 mi NE 4.6 mph - N/A   Overcast
2:54 PM 24.4 °F 18.6 °F 12.4 °F 60% 30.29 in 10.0 mi East 4.6 mph - N/A   Mostly Cloudy
3:14 PM 25.0 °F 17.1 °F 12.7 °F 60% 30.27 in 10.0 mi East 6.9 mph - N/A   Scattered Clouds
3:54 PM 25.2 °F 20.9 °F 12.2 °F 58% 30.26 in 10.0 mi East 3.5 mph - N/A   Scattered Clouds
4:14 PM 25.7 °F 18.0 °F 12.4 °F 57% 30.25 in 10.0 mi NE 6.9 mph - N/A   Clear
4:34 PM 26.2 °F 17.8 °F 12.0 °F 55% 30.26 in 10.0 mi NE 8.1 mph - N/A   Clear
4:54 PM 25.7 °F 18.0 °F 11.8 °F 56% 30.28 in 10.0 mi ESE 6.9 mph - N/A   Clear
5:14 PM 25.3 °F 16.7 °F 10.9 °F 54% 30.30 in 10.0 mi ESE 8.1 mph - N/A   Clear
5:34 PM 24.8 °F 16.1 °F 10.2 °F 54% 30.29 in 10.0 mi East 8.1 mph - N/A   Clear
5:54 PM 23.9 °F 15.0 °F 10.6 °F 57% 30.30 in 10.0 mi SE 8.1 mph - N/A   Clear
6:14 PM 23.7 °F 15.6 °F 10.6 °F 57% 30.30 in 10.0 mi ESE 6.9 mph - N/A   Clear
6:34 PM 23.0 °F 15.8 °F 10.2 °F 58% 30.29 in 10.0 mi East 5.8 mph - N/A   Clear
6:54 PM 22.8 °F 14.5 °F 9.9 °F 58% 30.28 in 10.0 mi East 6.9 mph - N/A   Clear
7:14 PM 22.6 °F 14.3 °F 10.2 °F 59% 30.28 in 10.0 mi ESE 6.9 mph - N/A   Clear
7:34 PM 22.1 °F 15.9 °F 10.2 °F 60% 30.27 in 10.0 mi East 4.6 mph - N/A   Clear
7:54 PM 22.1 °F 14.7 °F 10.4 °F 61% 30.27 in 10.0 mi ESE 5.8 mph - N/A   Clear
8:14 PM 21.6 °F 11.3 °F 10.8 °F 63% 30.27 in 10.0 mi ESE 9.2 mph - N/A   Clear
8:34 PM 20.7 °F 11.0 °F 10.4 °F 65% 30.26 in 10.0 mi ESE 8.1 mph - N/A   Clear
8:54 PM 19.9 °F 10.1 °F 9.7 °F 64% 30.26 in 10.0 mi ESE 8.1 mph - N/A   Clear
9:14 PM 19.8 °F 11.9 °F 9.5 °F 64% 30.25 in 10.0 mi ESE 5.8 mph - N/A   Clear
9:34 PM 19.2 °F 9.3 °F 9.7 °F 66% 30.25 in 10.0 mi East 8.1 mph - N/A   Clear
9:54 PM 18.5 °F 7.5 °F 10.0 °F 70% 30.25 in 10.0 mi East 9.2 mph - N/A   Clear
10:14 PM 18.5 °F 7.5 °F 10.9 °F 72% 30.25 in 10.0 mi ESE 9.2 mph - N/A   Scattered Clouds
10:34 PM 18.3 °F 9.1 °F 11.3 °F 74% 30.24 in 10.0 mi ESE 6.9 mph 10.4 mph N/A   Overcast
10:54 PM 18.5 °F 8.4 °F 12.4 °F 77% 30.23 in 10.0 mi East 8.1 mph - N/A   Overcast
11:14 PM 18.9 °F 8.8 °F 13.5 °F 79% 30.21 in 10.0 mi East 8.1 mph 18.4 mph N/A   Overcast
11:34 PM 19.2 °F 6.4 °F 14.4 °F 81% 30.20 in 10.0 mi East 12.7 mph 19.6 mph N/A   Overcast
11:54 PM 19.6 °F 7.4 °F 15.4 °F 84% 30.19 in 10.0 mi ESE 11.5 mph 18.4 mph N/A   Overcast